This is the latest recevied weather packets stored in our database for station/object KD7CTY. If no packets are shown the sender has not sent any weather packets the latest 10 day(s).
| Time | Temp. | Humidity | Pressure | Rain* | Wind** | Luminosity | Snow |
|---|---|---|---|---|---|---|---|
| 1777835671 | 23.89° C | 49% | 1012.4 hPa | 0 mm | - | 828 W/m² | - |
| 1777835367 | 24.44° C | 49% | 1012.4 hPa | 0 mm | - | 810 W/m² | - |
| 1777835065 | 24.44° C | 48% | 1012.6 hPa | 0 mm | - | 911 W/m² | - |
| 1777834762 | 23.33° C | 50% | 1012.7 hPa | 0 mm | - | 910 W/m² | - |
| 1777834458 | 23.89° C | 50% | 1012.8 hPa | 0 mm | - | 918 W/m² | - |
| 1777834157 | 23.89° C | 49% | 1012.8 hPa | 0 mm | - | 915 W/m² | - |
| 1777833854 | 23.89° C | 52% | 1012.8 hPa | 0 mm | - | 899 W/m² | - |
| 1777833550 | 22.78° C | 50% | 1012.7 hPa | 0 mm | - | 904 W/m² | - |
| 1777833247 | 22.78° C | 51% | 1012.9 hPa | 0 mm | - | 907 W/m² | - |
| 1777832944 | 22.78° C | 50% | 1013 hPa | 0 mm | - | 906 W/m² | - |
| 1777832643 | 22.78° C | 51% | 1012.8 hPa | 0 mm | - | 895 W/m² | - |
| 1777832340 | 22.22° C | 51% | 1013 hPa | 0 mm | - | 878 W/m² | - |
| 1777832037 | 22.78° C | 52% | 1013 hPa | 0 mm | - | 865 W/m² | - |
| 1777831733 | 22.22° C | 52% | 1013.2 hPa | 0 mm | - | 845 W/m² | - |
| 1777831431 | 21.67° C | 54% | 1013.1 hPa | 0 mm | - | 840 W/m² | - |
| 1777831127 | 21.67° C | 54% | 1013.3 hPa | 0 mm | - | 833 W/m² | - |
| 1777830825 | 21.67° C | 54% | 1013 hPa | 0 mm | - | 825 W/m² | - |
| 1777830521 | 21.67° C | 54% | 1013 hPa | 0 mm | - | 806 W/m² | - |
| 1777830219 | 21.67° C | 53% | 1013 hPa | 0 mm | - | 783 W/m² | - |
| 1777829914 | 21.11° C | 54% | 1013.1 hPa | 0 mm | - | 757 W/m² | - |
| 1777829611 | 21.11° C | 56% | 1013.2 hPa | 0 mm | - | 745 W/m² | - |
| 1777829308 | 21.11° C | 56% | 1013.1 hPa | 0 mm | - | 745 W/m² | - |
| 1777829006 | 21.11° C | 57% | 1012.8 hPa | 0 mm | - | 744 W/m² | - |
| 1777828701 | 21.11° C | 57% | 1013.1 hPa | 0 mm | - | 739 W/m² | - |
| 1777828398 | 21.11° C | 56% | 1013.1 hPa | 0 mm | - | 709 W/m² | - |
* Rain latest hour (hover to see other rain measurements)
** Current wind speed in m/s (hover to see current wind gust speed)